713  
ASUS46 KPDT 261225  
RWRPDT  
PENDLETON REGIONAL WEATHER ROUNDUP  
NATIONAL WEATHER SERVICE PENDLETON OREGON  
500 AM PDT TUE MAR 26 2019  
 
NOTE: FAIR INDICATES FEW OR NO CLOUDS BELOW 12,000 FEET WITH NO  
SIGNIFICANT WEATHER AND/OR S TO VISIBILITY
.  
 
# INDICATES UNOFFICIAL STATION AND DATA  
 
WAZ520-261310-  
EAST SLOPES OF WASHINGTON CASCADES  
 
CITY SKY/WX TMP DP RH WIND PRES REMARKS
 
#BULLFROG N/A 36 35 96 CALM N/A  
#EASTON DOT N/A N/A N/A N/A CALM N/A  
#ELK HTS DOT N/A 36 36 100 NW1 N/A  
#GLENWOOD N/A 37 33 85 SW1 30.07R  
#NELSON 3SW N/A 32 30 92 CALM 30.22S  
#TEANAWAY 4NE N/A 35 34 96 CALM N/A  
#TROUT LAKE 1NE N/A 33 32 96 SW1 30.08R  
#TROUT LAKE 1E N/A 31 29 92 CALM 30.06R  

 
 
WAZ521-261310-  
SIMCOE HIGHLANDS  
 
CITY SKY/WX TMP DP RH WIND PRES REMARKS
 
#BICKLETON HS N/A 34 29 82 W9 29.61R  
#SATUS PASS DOT N/A 33 28 82 N5 N/A  
#CENTERVILLE 1SWN/A 37 32 82 CALM 30.03R  
#GOODNOE HILLS N/A 39 34 82 W9 29.95R  
#LYLE 6NE N/A 39 35 85 W2 30.08R  
#PITT 4SE N/A 34 32 92 CALM 30.09R  

 
 
WAZ026-261310-  
KITTITAS VALLEY  
 
CITY SKY/WX TMP DP RH WIND PRES REMARKS
 
ELLENSBURG AP PTCLDY 39 32 76 NW9 29.98R  
6HR MIN TEMP: 39; 6HR MAX TEMP: 45; 6HR PCP: TRACE;  
 
#ELLENSBURG CWU N/A 40 34 79 NW9 29.94R  
#ELLENSBURG 3NE N/A 39 34 82 N6 28.06S  
#ELLENSBURG 1E N/A 41 35 79 NW1 30.03R  
#KITTITAS 3S N/A 36 33 89 CALM 29.99R  
#MANASTASH RDG N/A 28 28 100 CALM N/A  
#ROCKY CYN DOT N/A 38 34 85 W10 N/A  
#RYEGRASS DOT N/A 35 32 89 CALM N/A  
#THORP 6N N/A 42 39 89 CALM 29.96R  

 
 
WAZ027-261310-  
YAKIMA VALLEY  
 
CITY SKY/WX TMP DP RH WIND PRES REMARKS
 
SUNNYSIDE AP MOCLDY 37 36 96 CALM 30.03R  
YAKIMA AIRPORT CLEAR 34 31 89 W3 30.00R  
6HR MIN TEMP: 33; 6HR MAX TEMP: 45;  
 
YAKIMA-VAGABOND CLEAR 35 32 89 S3 29.98R  
6HR MIN TEMP: 35; 6HR MAX TEMP: 44;  
 
#DONALD 2NE N/A 40 21 46 SW1 28.86R  
#MABTON N/A 42 37 82 S5 30.02R  
#NACHES 2SW N/A 37 35 92 CALM 29.97S  
#OUTLOOK DOT N/A 41 38 89 CALM 29.99R  
#PARKER DOT N/A 41 34 76 CALM 30.00R  
#TERRACE HTS N/A 38 34 85 CALM 29.99R  
#TOPPENISH N/A 44 37 76 CALM 29.95R  
#I82 S UMTANUM RN/A 34 31 89 N3 N/A  
#UNION GAP DOT N/A 37 34 89 CALM 30.01R  
#ZILLAH DOT N/A 40 36 85 W1 N/A  

 
 
WAZ028-261310-  
LOWER COLUMBIA BASIN...WASHINGTON  
 
CITY SKY/WX TMP DP RH WIND PRES REMARKS
 
HANFORD PTCLDY 47 35 63 W13 29.99R WCI 41  
6HR MIN TEMP: 46; 6HR MAX TEMP: 49;  
 
PASCO CLOUDY 48 37 65 CALM 30.04R  
6HR MIN TEMP: 46; 6HR MAX TEMP: 49; 6HR PCP: TRACE;  
 
PROSSER AWOS N/A 41 39 93 SW5 30.06R  
RICHLAND AWOS PTCLDY 46 38 73 S5 30.04R  
#BASIN CITY 5SW N/A 43 38 82 S5 29.99R  
#CONNELL 5N N/A 42 39 89 SW6 30.01R  
#CONNELL 5NW N/A 42 19 39 N6 29.95R  
#ELTOPIA 6NW N/A 42 38 86 CALM 28.98R  
#KENNEWICK 3S N/A 44 39 82 S6 30.04R  
#PROSSER DOT N/A 45 36 70 CALM 30.03S  
#SAGEMOOR 2W N/A 42 37 82 S3 29.89R  
#TOUCHET 2S N/A 47 39 74 SW6 30.03R  
#WEST PASCO N/A 47 38 71 CALM 30.04R  

 
 
WAZ029-261310-  
FOOTHILLS OF THE BLUES...WASHINGTON  
 
CITY SKY/WX TMP DP RH WIND PRES REMARKS
 
WALLA WALLA AP CLOUDY 48 39 71 CALM 30.03F  
6HR MIN TEMP: 47; 6HR MAX TEMP: 54; 6HR PCP: TRACE;  
 
#CLYDE 6NW N/A 44 38 79 S14 30.01R WCI 37  
#DELANEY DOT N/A 47 37 68 S13 30.03S WCI 41  
#LOWDEN 2SE N/A 48 40 74 W1 30.01S  
#PLEASANT VIEW 1N/A 42 38 86 SE14 30.04R WCI 35  
#PRESCOTT N/A 47 41 79 CALM 30.02S  
#WHITMAN COLLEGEN/A 47 41 79 CALM 30.10R  
#WAITSBURG 6SSE N/A 43 37 79 SE3 29.84S  
#WALLA WALLA 5E N/A 46 40 79 S2 N/A  
#WHITMAN MISSIONN/A 49 41 74 S1 30.06S  

 
 
WAZ030-261310-  
BLUE MOUNTAINS...WASHINGTON  
 
CITY SKY/WX TMP DP RH WIND PRES REMARKS
 
#DIXIE 5SE N/A 39 35 85 S7 29.92S  

 
 
ORZ009-041-WAZ024-261310-  
COLUMBIA RIVER GORGE  
 
CITY SKY/WX TMP DP RH WIND PRES REMARKS
 
HOOD RIVER AP PTCLDY 36 34 92 MISG 30.09R  
THE DALLES AP CLEAR 40 35 82 SW5 30.08R  
6HR MIN TEMP: 40; 6HR MAX TEMP: 47;  
 
#ARLINGTON AIRPON/A 41 37 86 W9 30.05R  
#CELILO DOT N/A 42 35 76 S2 N/A  
#LYLE N/A 43 40 89 CALM 30.10R  
#MARYHILL N/A 40 37 89 N6 29.92R  
#MURDOCK N/A 43 39 86 W1 30.06R  
#RUFUS DOT N/A 48 36 63 W9 N/A  
#SMITHVILLE N/A 44 39 82 N5 30.07R  
 

 
 
ORZ510-261310-  
NORTH CENTRAL OREGON  
 
CITY SKY/WX TMP DP RH WIND PRES REMARKS
 
#ANTELOPE N/A 31 28 88 CALM 29.91R  
#COW CYN RST AREN/A 36 32 85 SW2 N/A  
#DUFUR N/A 30 29 96 CALM 30.05R  
#GRASS VALLEY 1SN/A 35 31 85 SW5 30.17R  
#KENT DOT N/A 31 26 81 W8 N/A  
#SHANIKO 5WSW N/A 34 29 82 CALM N/A  
#WAPANITIA AIRPON/A 37 31 79 CALM 30.09R  
#WASCO DOT N/A 36 36 100 CALM N/A  
#WASCO 5NE N/A 36 34 92 SW6 30.06R  

 
 
ORZ511-261310-  
CENTRAL OREGON  
 
CITY SKY/WX TMP DP RH WIND PRES REMARKS
 
BEND AIRPORT CLEAR 32 27 82 SW6 30.02R  
MADRAS AIRPORT CLEAR 30 28 92 SE8 30.06R  
PRINEVILLE AP CLEAR 30 27 88 CALM 30.03R  
REDMOND AIRPORT CLEAR 27 24 88 CALM 30.02S  
6HR MIN TEMP: 27; 6HR MAX TEMP: 42;  
 
#ASHWOOD SCHOOL N/A 35 29 78 CALM 29.99S  
#BEND 1SW N/A 28 26 92 CALM N/A  
#BEND-AWBREY N/A 31 28 88 S2 30.05R  
#BEND-KIM LN N/A 27 25 92 CALM 30.01S  
#CULVER N/A 32 27 82 CALM 29.72R  
#CULVER 8W N/A 35 28 75 CALM 30.02R  
#LAKE BILLY CHINN/A 34 N/A N/A CALM 30.15S  
#POWELL BUTTE N/A 35 24 64 S2 29.96S  
#PRINEVILLE N/A 31 28 88 CALM 30.11S  
#PRINEVILLE 3N N/A 30 27 88 W1 30.03R  
#WARM SPRINGS N/A 35 30 82 CALM 29.92R  
 

 
 
 
ORZ509-261310-  
EAST SLOPES OF OREGON CASCADES  
 
CITY SKY/WX TMP DP RH WIND PRES REMARKS
 
SISTERS AWOS N/A 27 25 92 CALM 29.99R  
#CAMP SHERMAN N/A 27 24 88 CALM 30.13R  
#LA PINE 4NW N/A 25 22 88 CALM 30.10S  
#LAVA BUTTE DOT N/A 28 25 88 CALM N/A  
#SISTERS ODOT N/A 25 24 96 CALM N/A  
#SISTERS 3N N/A 25 19 78 CALM 29.99S  
#WANOGA BUTTE D N/A 25 11 55 W10 N/A  
 

 
 
ORZ044-261310-  
LOWER COLUMBIA BASIN...OREGON  
 
CITY SKY/WX TMP DP RH WIND PRES REMARKS
 
HERMISTON CLOUDY 46 37 71 SW9 30.04S  
6HR MIN TEMP: 45; 6HR MAX TEMP: 49;  
 
#BOARDMAN SCHOOLN/A 43 38 82 CALM 30.04R  
#BOARDMAN 8SW N/A 40 36 85 SW9 30.06R  
#ECHO 8SW N/A 43 43 100 CALM 30.06R  
#I-84 EX 198 DOTN/A 45 37 73 NE3 N/A  
#IONE SCHOOL N/A 42 29 60 SW3 30.09R  
#UMATILLA N/A 44 37 76 SW5 29.97F  

 
 
ORZ507-261310-  
NORTHERN FOOTHILLS OF THE BLUES  
 
CITY SKY/WX TMP DP RH WIND PRES REMARKS
 
PENDLETON AIRPT CLOUDY 42 38 86 W5 30.03R  
6HR MIN TEMP: 42; 6HR MAX TEMP: 46; 6HR PCP: TRACE;  
 
#ADAMS 3WNW N/A 41 38 89 CALM 30.02S  
#ATHENA N/A 42 38 86 CALM 30.06S  
#CAYUSE N/A 44 39 82 S1 30.03R  
#HELIX SCHOOL N/A 41 38 89 CALM 30.03S  
#HELIX 3N N/A 40 37 89 S7 30.03S  
#HOLDMAN 6E N/A 42 38 86 S3 29.84R  
#M-FREEWATER 5SEN/A 47 38 71 CALM 30.02F  
#PENDLETON DNTN N/A 44 36 73 CALM 30.02S  
#PDT AQUATIC CTRN/A 44 37 76 CALM 29.73S  
#PDT SUNRIDGE N/A 43 39 86 S1 30.06R  
#PENDLETON 6SE N/A 44 39 82 SW8 29.99R  
#TUTUILLA N/A 42 37 82 CALM 30.10R  
#UMAPINE 2E N/A 47 41 79 CALM 30.05S  
 

 
 
ORZ508-261310-  
SOUTHERN FOOTHILLS OF THE BLUES  
 
CITY SKY/WX TMP DP RH WIND PRES REMARKS
 
#AJAX N/A 37 29 72 CALM 30.18R  
#HEPPNER EOC N/A 39 34 82 CALM 29.99R  
#HEPPNER 4NE N/A 37 33 85 SW2 30.03R  
#LEXINGTON 2SE N/A 38 34 85 CALM 30.00R  
#OLEX 4N N/A 40 37 89 SW6 30.03R  
#RUGGS 5NE N/A 36 33 89 SW1 30.17R  
#RUGGS 2SW N/A 36 32 85 S6 30.06R  
 

 
 
ORZ502-503-261310-  
BLUE MOUNTAINS  
 
CITY SKY/WX TMP DP RH WIND PRES REMARKS
 
MEACHAM CLOUDY 35 32 89 CALM 30.01R  
6HR MIN TEMP: 35; 6HR MAX TEMP: 41;  
 
#BATTLE MTN DOT N/A 34 28 78 S3 N/A  
#GRANITE N/A 32 28 85 CALM 29.65F  
#LADD CYN SMT N/A 38 36 92 NW6 N/A  
#LADD CREEK ODOTN/A 39 38 96 CALM N/A  
#N POWDER DOT N/A 41 36 82 NE16 N/A WCI 33  
#SUMMERVILLE 5NWN/A 38 34 85 CALM 26.69R  
#TOLLGATE N/A 30 29 96 SW1 30.01S  
#TROY SCHOOL N/A 44 42 93 CALM 29.88R  
#WESTON 4E N/A 37 35 92 SE1 29.99F  

 
 
ORZ505-261310-  
JOHN DAY BASIN  
 
CITY SKY/WX TMP DP RH WIND PRES REMARKS
 
JOHN DAY MOCLDY 39 31 73 CALM 30.01S  
#DAYVILLE SCHOOLN/A 41 30 65 CALM 29.98S  
#MITCHELL 8NW N/A 36 29 75 CALM 30.05R  
#MONUMENT HS N/A 41 34 76 CALM 29.98S  

 
 
ORZ506-261310-  
OCHOCO AND JOHN DAY HIGHLANDS  
 
CITY SKY/WX TMP DP RH WIND PRES REMARKS
 
#HORSE RIDGE DO N/A 25 22 88 CALM N/A  
#PAULINA ODOT N/A 37 27 67 CALM N/A  
#PRAIRIE CITY N/A 39 35 85 CALM 30.14S  
#SENECA N/A 34 N/A N/A CALM N/A  
#SENECA 9NW N/A 32 29 89 CALM 30.02F  

 
 
ORZ049-261310-  
GRANDE RONDE VALLEY  
 
CITY SKY/WX TMP DP RH WIND PRES REMARKS
 
LA GRANDE CLOUDY 41 35 79 W10 30.04R  
#COVE SCHOOL N/A 39 37 92 CALM 30.02S  
#COVE 6NW N/A 41 38 89 CALM 30.03R  
#ELGIN 3N N/A 41 29 62 CALM 30.14S  
#ELGIN 1E N/A 41 33 73 CALM N/A  
#IMBLER SCHOOL N/A 40 35 82 CALM 29.99R  
#ISLAND CITY 4N N/A 41 40 96 CALM 30.10R  
#LADD CYN DOT N/A 42 39 89 N6 N/A  
#UNION 1S N/A 41 37 86 NW1 30.03R  

 
 
ORZ050-261310-  
WALLOWA COUNTY  
 
CITY SKY/WX TMP DP RH WIND PRES REMARKS
 
#ENTERPRISE HS N/A 38 36 92 NW5 29.93R  
#IMNAHA SCHOOL N/A 44 42 93 N2 29.98S  
#JOSEPH N/A 35 33 92 NW6 30.16R  
#JOSEPH 3N N/A 36 31 82 N6 30.02R  
#JOSEPH 3W N/A 34 33 96 CALM 29.83R  
#LOSTINE N/A 36 34 92 N3 29.87R  
#LOSTINE 3SE N/A 36 34 92 NE6 30.06R  
#MT HOWARD 8000 N/A 26 25 96 SW7 29.91R  
#PROMISE 1S N/A 37 34 89 SW5 30.09R  
#WALLOWA SCHOOL N/A 38 35 89 CALM 29.99R  
 

 
 
CLICK HERE TO GO TO PREVIOUS BULLETINS.

The Nexlab OR Page
The Nexlab WA Page Main Text Page